Terug naar catalogus

NOAA 16 DEB

ActiefSSO
NORAD 41417·DEBRIS·🇺🇸 United States

Gelanceerd Sep 21, 2000 vanaf Vandenberg Space Force Base

Loading…

Volgende Passages (komende 24 uur)

TLE

VersSource: Space-Track

Epoch: Sep 14, 2026, 12:08 UTC

1 41417U 00055KW  26257.50591202  .00002870  00000-0  10649-2 0  9992
2 41417  98.7295 350.8657 0018421  76.9070 283.4168 14.32889616546081

Volg NOAA 16 DEB in realtime met AllMySat

Download on the App Store